WJA1102 CYVR-KLAX

Flight info

Callsign WJA1102
Flight time N/A
Altitude 37000
Route SEA J5 SUMMA DCT 4230N12050W DCT FRA J7 REBRG IRNMN2
Aircraft B38M/M-SDE1FGHILORVWXY/HB1

Departure

Time N/A
Airport Vancouver International Airport (CYVR)

Arrival

Time 2026-04-24 02:26
Airport Los Angeles International Airport (KLAX)
Time Latitude Longitude Altitude Speed Heading
2026-04-24 01:57 35.74105 -119.70496 37017 ft 419 kts 204°
2026-04-24 01:58 35.71314 -119.71540 37021 ft 419 kts 204°
2026-04-24 01:58 35.65681 -119.73457 37003 ft 425 kts 197°
2026-04-24 01:59 35.59917 -119.74783 37012 ft 424 kts 199°
2026-04-24 01:59 35.54131 -119.76207 37021 ft 424 kts 199°
2026-04-24 02:00 35.48344 -119.77641 37018 ft 424 kts 199°
2026-04-24 02:00 35.42558 -119.79075 37006 ft 424 kts 199°
2026-04-24 02:01 35.36826 -119.80494 36899 ft 424 kts 198°
2026-04-24 02:01 35.33954 -119.81199 36703 ft 415 kts 198°
2026-04-24 02:01 35.31081 -119.81465 36444 ft 419 kts 183°
2026-04-24 02:01 35.28195 -119.80738 36037 ft 430 kts 167°
2026-04-24 02:02 35.25511 -119.79047 35590 ft 440 kts 152°
2026-04-24 02:02 35.23034 -119.76835 35124 ft 440 kts 150°
2026-04-24 02:02 35.20581 -119.74605 34596 ft 439 kts 150°
2026-04-24 02:02 35.18140 -119.72358 34090 ft 439 kts 149°
2026-04-24 02:03 35.13331 -119.67886 33069 ft 435 kts 149°
2026-04-24 02:03 35.10934 -119.65653 32604 ft 432 kts 149°
2026-04-24 02:03 35.08548 -119.63433 32157 ft 429 kts 148°
2026-04-24 02:04 35.06182 -119.61231 31712 ft 426 kts 148°
2026-04-24 02:04 35.03832 -119.59047 31250 ft 424 kts 148°
2026-04-24 02:04 35.01488 -119.56869 30815 ft 422 kts 148°
2026-04-24 02:04 34.99161 -119.54709 30394 ft 419 kts 148°
2026-04-24 02:05 34.96845 -119.52560 29954 ft 418 kts 148°
2026-04-24 02:05 34.94569 -119.50450 29467 ft 416 kts 148°
2026-04-24 02:05 34.92273 -119.48324 29014 ft 413 kts 148°
2026-04-24 02:05 34.89968 -119.46253 28536 ft 411 kts 149°
2026-04-24 02:06 34.87668 -119.44193 28131 ft 408 kts 149°
2026-04-24 02:06 34.85394 -119.42155 27711 ft 405 kts 149°
2026-04-24 02:06 34.83127 -119.40121 27289 ft 403 kts 149°
2026-04-24 02:06 34.80874 -119.38103 26866 ft 401 kts 149°
2026-04-24 02:07 34.78629 -119.36093 26449 ft 400 kts 149°
2026-04-24 02:07 34.76390 -119.34093 26017 ft 399 kts 149°
2026-04-24 02:07 34.74144 -119.32111 25579 ft 400 kts 149°
2026-04-24 02:07 34.71876 -119.30128 25101 ft 414 kts 149°
2026-04-24 02:08 34.69516 -119.28058 24677 ft 420 kts 149°
2026-04-24 02:08 34.67137 -119.25975 24251 ft 423 kts 149°
2026-04-24 02:08 34.64741 -119.23896 23810 ft 422 kts 149°
2026-04-24 02:08 34.62359 -119.21836 23286 ft 420 kts 149°
2026-04-24 02:09 34.59985 -119.19786 22794 ft 417 kts 149°
2026-04-24 02:09 34.57628 -119.17753 22352 ft 413 kts 149°
2026-04-24 02:09 34.55312 -119.15714 21867 ft 411 kts 148°
2026-04-24 02:09 34.53012 -119.13676 21415 ft 408 kts 148°
2026-04-24 02:10 34.50754 -119.11680 20980 ft 406 kts 148°
2026-04-24 02:10 34.48478 -119.09669 20522 ft 404 kts 148°
2026-04-24 02:10 34.46210 -119.07667 20046 ft 403 kts 148°
2026-04-24 02:10 34.43937 -119.05673 19507 ft 404 kts 148°
2026-04-24 02:11 34.41635 -119.03679 18856 ft 409 kts 148°
2026-04-24 02:11 34.39314 -119.01667 18268 ft 410 kts 148°
2026-04-24 02:11 34.37029 -118.99685 17626 ft 399 kts 148°
2026-04-24 02:11 34.34803 -118.97751 17041 ft 388 kts 147°
2026-04-24 02:12 34.32669 -118.95820 16524 ft 381 kts 147°
2026-04-24 02:12 34.30552 -118.93902 16074 ft 379 kts 147°
2026-04-24 02:12 34.28472 -118.92024 15660 ft 377 kts 147°
2026-04-24 02:12 34.26370 -118.90128 15226 ft 376 kts 147°
2026-04-24 02:13 34.24286 -118.88219 14667 ft 378 kts 146°
2026-04-24 02:13 34.22188 -118.86290 14185 ft 378 kts 146°
2026-04-24 02:13 34.20102 -118.84375 13766 ft 376 kts 145°
2026-04-24 02:13 34.18022 -118.82468 13274 ft 375 kts 144°
2026-04-24 02:14 34.15989 -118.80513 12788 ft 373 kts 140°
2026-04-24 02:14 34.14106 -118.78428 12424 ft 359 kts 140°
2026-04-24 02:14 34.12322 -118.76475 12089 ft 343 kts 140°
2026-04-24 02:14 34.10587 -118.74592 11775 ft 329 kts 140°
2026-04-24 02:15 34.08909 -118.72805 11544 ft 316 kts 141°
2026-04-24 02:15 34.07271 -118.71030 11204 ft 318 kts 140°
2026-04-24 02:15 34.05635 -118.69252 10799 ft 312 kts 142°
2026-04-24 02:15 34.03865 -118.67872 10521 ft 301 kts 153°
2026-04-24 02:16 34.02247 -118.66276 10107 ft 305 kts 125°
2026-04-24 02:16 34.01551 -118.63926 9732 ft 298 kts 91°
2026-04-24 02:16 34.01745 -118.61488 9483 ft 289 kts 84°
2026-04-24 02:16 34.01823 -118.59117 9244 ft 285 kts 89°
2026-04-24 02:17 34.01788 -118.56737 8959 ft 283 kts 92°
2026-04-24 02:17 34.01681 -118.54373 8646 ft 282 kts 94°
2026-04-24 02:17 34.01527 -118.52020 8323 ft 281 kts 95°
2026-04-24 02:17 34.01344 -118.49681 8012 ft 280 kts 95°
2026-04-24 02:18 34.01146 -118.47343 7665 ft 281 kts 95°
2026-04-24 02:18 34.01093 -118.45001 7307 ft 280 kts 80°
2026-04-24 02:18 34.01501 -118.42707 6979 ft 280 kts 76°
2026-04-24 02:18 34.01910 -118.40435 6632 ft 273 kts 77°
2026-04-24 02:19 34.02299 -118.38226 6287 ft 266 kts 77°
2026-04-24 02:19 34.02666 -118.36104 5905 ft 259 kts 79°
2026-04-24 02:19 34.02907 -118.33970 5528 ft 254 kts 82°
2026-04-24 02:19 34.03122 -118.31875 5158 ft 249 kts 82°
2026-04-24 02:20 34.03329 -118.29816 4787 ft 245 kts 82°
2026-04-24 02:20 34.03533 -118.27788 4399 ft 242 kts 82°
2026-04-24 02:20 34.03737 -118.25786 4001 ft 239 kts 82°
2026-04-24 02:20 34.03690 -118.23818 3612 ft 235 kts 107°
2026-04-24 02:21 34.02854 -118.22174 3207 ft 231 kts 140°
2026-04-24 02:21 34.01469 -118.21301 2910 ft 222 kts 167°
2026-04-24 02:21 34.00009 -118.20927 2828 ft 212 kts 171°
2026-04-24 02:21 33.98598 -118.20617 2772 ft 200 kts 175°
2026-04-24 02:22 33.97288 -118.20876 2582 ft 188 kts 214°
2026-04-24 02:22 33.96425 -118.21948 2546 ft 178 kts 247°
2026-04-24 02:22 33.96261 -118.23399 2632 ft 178 kts 281°
2026-04-24 02:22 33.96549 -118.24881 2498 ft 185 kts 279°
2026-04-24 02:23 33.96632 -118.26406 2282 ft 180 kts 267°
2026-04-24 02:23 33.96497 -118.27903 2090 ft 178 kts 262°
2026-04-24 02:23 33.96325 -118.29364 1857 ft 174 kts 263°
2026-04-24 02:23 33.96181 -118.30742 1671 ft 158 kts 263°
2026-04-24 02:24 33.96051 -118.32016 1483 ft 150 kts 263°
2026-04-24 02:24 33.95927 -118.33227 1303 ft 145 kts 262°
2026-04-24 02:24 33.95804 -118.34407 1070 ft 140 kts 263°
2026-04-24 02:24 33.95685 -118.35573 860 ft 141 kts 263°
2026-04-24 02:25 33.95570 -118.36729 746 ft 140 kts 263°
2026-04-24 02:25 33.95452 -118.37908 509 ft 142 kts 262°
2026-04-24 02:25 33.95322 -118.39092 332 ft 146 kts 262°
2026-04-24 02:25 33.95194 -118.40304 156 ft 144 kts 262°
2026-04-24 02:26 33.95083 -118.41435 96 ft 115 kts 262°
2026-04-24 02:26 33.95014 -118.42096 98 ft 55 kts 262°
2026-04-24 02:26 33.94945 -118.42518 96 ft 35 kts 243°
2026-04-24 02:26 33.94869 -118.42655 99 ft 12 kts 227°
2026-04-24 02:27 33.94854 -118.42674 97 ft 0 kts 226°
2026-04-24 02:27 33.94849 -118.42680 98 ft 3 kts 224°
2026-04-24 02:27 33.94815 -118.42716 100 ft 11 kts 218°
2026-04-24 02:27 33.94710 -118.42770 101 ft 23 kts 188°
2026-04-24 02:28 33.94638 -118.42713 97 ft 14 kts 83°
2026-04-24 02:28 33.94649 -118.42584 97 ft 17 kts 84°
2026-04-24 02:28 33.94663 -118.42430 98 ft 20 kts 83°
2026-04-24 02:28 33.94680 -118.42251 96 ft 23 kts 82°
2026-04-24 02:29 33.94704 -118.42051 98 ft 26 kts 82°
2026-04-24 02:29 33.94727 -118.41827 97 ft 28 kts 83°
2026-04-24 02:29 33.94749 -118.41610 97 ft 25 kts 83°
2026-04-24 02:29 33.94773 -118.41410 96 ft 25 kts 76°
2026-04-24 02:30 33.94801 -118.41193 97 ft 28 kts 83°
2026-04-24 02:30 33.94824 -118.40977 97 ft 21 kts 83°
2026-04-24 02:30 33.94843 -118.40790 97 ft 24 kts 82°
2026-04-24 02:30 33.94857 -118.40641 97 ft 11 kts 104°
2026-04-24 02:31 33.94798 -118.40572 96 ft 14 kts 124°
2026-04-24 02:31 33.94792 -118.40469 96 ft 12 kts 81°
2026-04-24 02:31 33.94774 -118.40400 96 ft 8 kts 176°
2026-04-24 02:31 33.94748 -118.40403 96 ft 0 kts 186°